GW3733 Weather Reports


Display with metric or nautical units.
time (UTC)temp
F
wind
direction
speed
MPH
gust
MPH
rain 1hr
in
rain 24hr
in
rain mn
in
humidity
%
barometer
mb
20260831230940 77 354 0.0 0.0 0.00 0.00 0.00 96 1015.2
20260831230434 77 354 0.0 0.0 0.00 0.00 0.00 96 1015.1
20260831225929 77 354 0.0 0.0 0.00 0.00 0.00 96 1015.1
20260831225425 77 354 0.0 0.0 0.00 0.00 0.00 95 1015.1
20260831224920 78 354 0.0 0.0 0.00 0.00 0.00 95 1015.2
20260831224419 78 354 0.0 0.0 0.00 0.00 0.00 95 1015.0
20260831223914 78 354 0.0 0.0 0.00 0.00 0.00 94 1015.1
20260831223410 78 354 0.0 0.0 0.00 0.00 0.00 94 1015.1
20260831222907 78 354 0.0 0.0 0.00 0.00 0.00 93 1014.7
20260831222402 79 354 0.0 0.0 0.00 0.00 0.00 92 1014.9
20260831221857 79 354 0.0 0.0 0.00 0.00 0.00 92 1015.3
20260831221353 79 354 0.0 0.0 0.00 0.00 0.00 91 1015.2
20260831220848 79 354 0.0 0.0 0.00 0.00 0.00 89 1015.2
20260831220343 78 354 0.0 0.0 0.00 0.00 0.00 92 1015.4
20260831215838 78 354 0.0 0.0 0.00 0.00 0.00 93 1015.4
20260831215334 79 354 0.0 0.0 0.00 0.00 0.00 92 1015.2
20260831214830 79 354 0.0 0.0 0.00 0.00 0.00 91 1015.3
20260831214327 79 354 0.0 0.0 0.00 0.00 0.00 92 1015.5
20260831213822 79 354 0.0 0.0 0.00 0.00 0.00 91 1015.4
20260831213319 79 354 0.0 0.0 0.00 0.00 0.00 91 1015.5
20260831212814 79 353 0.0 0.0 0.00 0.00 0.00 91 1015.6
20260831212311 80 354 0.0 0.0 0.00 0.00 0.00 90 1015.2
20260831211809 80 354 0.0 0.0 0.00 0.00 0.00 91 1015.5
20260831211304 80 354 0.0 0.0 0.00 0.00 0.00 89 1015.5
20260831210758 80 354 0.0 0.0 0.00 0.00 0.00 88 1015.5
20260831210255 81 357 0.0 0.0 0.00 0.00 0.00 87 1015.4
20260831205754 81 358 0.0 0.0 0.00 0.00 0.00 86 1015.5
20260831205250 81 356 0.0 0.0 0.00 0.00 0.00 84 1015.5
20260831204749 81 0 0.0 0.0 0.00 0.00 0.00 83 1015.6
20260831204249 81 346 0.0 0.0 0.00 0.00 0.00 88 1015.5
20260831203743 81 0 0.0 0.0 0.00 0.00 0.00 85 1015.5
20260831203238 81 15 0.0 0.0 0.00 0.00 0.00 87 1015.6
20260831202736 80 17 0.0 0.0 0.00 0.00 0.00 86 1015.8
20260831202231 80 10 0.0 0.0 0.00 0.00 0.00 89 1015.7
20260831201731 79 10 0.0 0.0 0.00 0.00 0.00 90 1015.8
20260831201224 79 10 0.0 0.0 0.00 0.00 0.00 88 1016.0
20260831200720 79 10 0.0 0.0 0.00 0.00 0.00 92 1015.8
20260831200214 79 10 0.0 0.0 0.00 0.00 0.00 91 1015.7
20260831195710 79 10 0.0 0.0 0.00 0.00 0.00 91 1016.1
20260831195205 78 10 0.0 0.0 0.00 0.00 0.00 91 1016.1
20260831194654 79 10 0.0 0.0 0.00 0.00 0.00 91 1016.1
20260831194149 79 10 0.0 0.0 0.00 0.00 0.00 89 1016.0
20260831193644 80 10 0.0 0.0 0.00 0.00 0.00 87 1016.0
20260831193139 80 17 0.0 0.0 0.00 0.00 0.00 87 1015.9
20260831192634 81 17 0.0 0.0 0.00 0.00 0.00 86 1016.1
20260831192130 80 16 0.0 0.0 0.00 0.00 0.00 83 1016.1
20260831191626 80 348 0.0 0.0 0.00 0.00 0.00 83 1016.1
20260831191121 80 348 0.0 0.0 0.00 0.00 0.00 83 1016.2
20260831190616 80 352 0.0 0.0 0.00 0.00 0.00 85 1016.4
20260831190114 80 356 0.0 0.0 0.00 0.00 0.00 85 1016.1
20260831185605 80 52 0.0 0.0 0.00 0.00 0.00 82 1016.4
20260831185100 80 5 0.0 0.0 0.00 0.00 0.00 87 1016.6
20260831184554 80 352 0.0 0.0 0.00 0.00 0.00 85 1016.6
20260831184049 81 347 0.0 0.0 0.00 0.00 0.00 85 1016.4
20260831183548 80 353 0.0 0.0 0.00 0.00 0.00 81 1016.4
20260831183042 80 7 0.0 0.0 0.00 0.00 0.00 81 1016.3
20260831182537 80 15 0.0 0.0 0.00 0.00 0.00 87 1016.6
20260831182032 79 15 0.0 0.0 0.00 0.00 0.00 85 1016.6
20260831181527 79 11 0.0 0.0 0.00 0.00 0.00 83 1016.6
20260831181026 79 11 0.0 0.0 0.00 0.00 0.00 87 1016.5
20260831180521 79 11 0.0 0.0 0.00 0.00 0.00 84 1016.7
20260831180017 78 11 0.0 0.0 0.00 0.00 0.00 89 1016.7
20260831175512 79 11 0.0 0.0 0.00 0.00 0.00 88 1016.7
20260831175009 79 11 0.0 0.0 0.00 0.00 0.00 86 1016.9
20260831174508 78 11 0.0 0.0 0.00 0.00 0.00 89 1016.6
20260831174003 78 11 0.0 0.0 0.00 0.00 0.00 90 1016.3
20260831173501 78 11 0.0 0.0 0.00 0.00 0.00 91 1016.4
20260831172957 78 11 0.0 0.0 0.00 0.00 0.00 87 1016.4
20260831172452 78 11 0.0 0.0 0.00 0.00 0.00 87 1016.5
20260831171947 78 11 0.0 0.0 0.00 0.00 0.00 87 1016.4
20260831171443 78 11 0.0 0.0 0.00 0.00 0.00 85 1016.7
20260831170939 79 11 0.0 0.0 0.00 0.00 0.00 86 1016.6
20260831170430 79 12 0.0 0.0 0.00 0.00 0.00 85 1016.7
20260831165927 79 352 0.0 0.0 0.00 0.00 0.00 82 1016.9
20260831165422 80 352 0.0 0.0 0.00 0.00 0.00 83 1016.9
20260831164919 80 351 0.0 0.0 0.00 0.00 0.00 80 1016.9
20260831164415 80 350 0.0 0.0 0.00 0.00 0.00 83 1017.0
20260831163910 80 348 0.0 0.0 0.00 0.00 0.00 80 1016.7
20260831163405 80 4 0.0 0.0 0.00 0.00 0.00 80 1016.9
20260831162904 80 356 0.0 0.0 0.00 0.00 0.00 80 1017.0
20260831162359 80 342 0.0 0.0 0.00 0.00 0.00 81 1016.9
20260831161857 81 355 0.0 0.0 0.00 0.00 0.00 81 1016.7
20260831161354 80 345 0.0 0.0 0.00 0.00 0.00 79 1017.1
20260831160849 80 345 0.0 0.0 0.00 0.00 0.00 78 1017.0
20260831160343 82 30 0.0 0.0 0.00 0.00 0.00 76 1017.0
20260831155838 82 355 0.0 0.0 0.00 0.00 0.00 76 1016.9
20260831155332 82 15 0.0 0.0 0.00 0.00 0.00 75 1017.1
20260831154828 82 339 0.0 0.0 0.00 0.00 0.00 74 1017.0
20260831154325 80 334 0.0 0.0 0.00 0.00 0.00 80 1017.3
20260831153823 80 359 0.0 0.0 0.00 0.00 0.00 79 1017.0
20260831153319 81 12 0.0 0.0 0.00 0.00 0.00 79 1017.0
20260831152815 82 55 0.0 0.0 0.00 0.00 0.00 76 1017.3
20260831152311 82 12 0.0 0.0 0.00 0.00 0.00 77 1017.2
20260831151806 81 13 0.0 0.0 0.00 0.00 0.00 79 1017.2
20260831151305 79 41 0.0 0.0 0.00 0.00 0.00 81 1017.2
20260831150800 80 355 0.0 0.0 0.00 0.00 0.00 81 1017.3
20260831150256 80 355 0.0 0.0 0.00 0.00 0.00 80 1017.5
20260831145754 79 348 0.0 0.0 0.00 0.00 0.00 83 1017.5
20260831145251 78 354 0.0 0.0 0.00 0.00 0.00 83 1017.5
20260831144746 78 351 0.0 0.0 0.00 0.00 0.00 81 1017.0
20260831144243 79 350 0.0 0.0 0.00 0.00 0.00 84 1017.3
20260831143742 79 345 0.0 0.0 0.00 0.00 0.00 82 1017.4
20260831143238 78 344 0.0 0.0 0.00 0.00 0.00 82 1017.1
20260831142733 78 351 0.0 0.0 0.00 0.00 0.00 80 1017.1
20260831142228 78 339 0.0 0.0 0.00 0.00 0.00 80 1017.0
20260831141728 78 345 0.0 0.0 0.00 0.00 0.00 79 1017.0
20260831141223 77 346 0.0 0.0 0.00 0.00 0.00 81 1017.0
20260831140722 78 344 0.0 0.0 0.00 0.00 0.00 84 1017.0
20260831140217 78 345 0.0 0.0 0.00 0.00 0.00 79 1017.2
20260831135715 78 345 0.0 0.0 0.00 0.00 0.00 80 1017.3
20260831135211 79 346 0.0 0.0 0.00 0.00 0.00 79 1017.3
20260831134706 78 345 0.0 0.0 0.00 0.00 0.00 82 1017.2
20260831134203 77 344 0.0 0.0 0.00 0.00 0.00 86 1017.3
20260831133701 76 344 0.0 0.0 0.00 0.00 0.00 87 1017.3
20260831133156 76 344 0.0 0.0 0.00 0.00 0.00 87 1017.3
20260831132652 75 344 0.0 0.0 0.00 0.00 0.00 87 1017.5
20260831132151 74 344 0.0 0.0 0.00 0.00 0.00 87 1017.6
20260831131646 74 344 0.0 0.0 0.00 0.00 0.00 88 1017.2
20260831131142 73 344 0.0 0.0 0.00 0.00 0.00 89 1017.5
20260831130637 72 344 0.0 0.0 0.00 0.00 0.00 93 1017.6
20260831130133 71 344 0.0 0.0 0.00 0.00 0.00 95 1017.2
20260831125631 70 344 0.0 0.0 0.00 0.00 0.00 97 1017.3
20260831125127 70 344 0.0 0.0 0.00 0.00 0.00 97 1017.2
20260831124623 69 344 0.0 0.0 0.00 0.00 0.00 98 1017.1
20260831124118 69 344 0.0 0.0 0.00 0.00 0.00 99 1017.3
20260831123617 68 344 0.0 0.0 0.00 0.00 0.00 99 1017.4
20260831123111 67 344 0.0 0.0 0.00 0.00 0.00 99 1017.4
20260831122611 67 344 0.0 0.0 0.00 0.00 0.00 99 1017.4
20260831122107 66 344 0.0 0.0 0.00 0.00 0.00 99 1017.5
20260831121606 66 344 0.0 0.0 0.00 0.00 0.00 99 1017.6
20260831121103 66 344 0.0 0.0 0.00 0.00 0.00 99 1017.3
20260831120602 66 344 0.0 0.0 0.00 0.00 0.00 99 1017.2
20260831120058 65 344 0.0 0.0 0.00 0.00 0.00 99 1017.3
20260831115554 65 344 0.0 0.0 0.00 0.00 0.00 99 1017.2
20260831115049 65 344 0.0 0.0 0.00 0.00 0.00 99 1017.4
20260831114547 65 344 0.0 0.0 0.00 0.00 0.00 99 1017.1
20260831114042 65 344 0.0 0.0 0.00 0.00 0.00 99 1017.1
20260831113542 64 344 0.0 0.0 0.00 0.00 0.00 99 1017.2
20260831113038 64 344 0.0 0.0 0.00 0.00 0.00 99 1017.3
20260831112537 64 344 0.0 0.0 0.00 0.00 0.00 99 1017.1
20260831112032 64 344 0.0 0.0 0.00 0.00 0.00 99 1017.1
20260831111528 64 343 0.0 0.0 0.00 0.00 0.00 99 1017.2
20260831111024 64 343 0.0 0.0 0.00 0.00 0.00 99 1017.0
20260831110519 64 343 0.0 0.0 0.00 0.00 0.00 99 1017.1
20260831110014 63 343 0.0 0.0 0.00 0.00 0.00 99 1017.0
20260831105508 63 343 0.0 0.0 0.00 0.00 0.00 99 1016.9
20260831105003 64 343 0.0 0.0 0.00 0.00 0.00 99 1016.5
20260831104459 64 343 0.0 0.0 0.00 0.00 0.00 99 1016.5
20260831103955 64 343 0.0 0.0 0.00 0.00 0.00 99 1016.5
20260831103454 64 343 0.0 0.0 0.00 0.00 0.00 99 1016.5
20260831102950 64 343 0.0 0.0 0.00 0.00 0.00 99 1016.6
20260831102445 64 343 0.0 0.0 0.00 0.00 0.00 99 1016.5
20260831101940 64 343 0.0 0.0 0.00 0.00 0.00 99 1016.5
20260831101435 64 343 0.0 0.0 0.00 0.00 0.00 99 1016.5
20260831100931 64 343 0.0 0.0 0.00 0.00 0.00 99 1016.4
20260831100427 64 343 0.0 0.0 0.00 0.00 0.00 99 1016.2
20260831095922 64 343 0.0 0.0 0.00 0.00 0.00 99 1016.2
20260831095422 65 343 0.0 0.0 0.00 0.00 0.00 99 1015.9
20260831094916 65 343 0.0 0.0 0.00 0.00 0.00 99 1016.0
20260831094412 65 343 0.0 0.0 0.00 0.00 0.00 99 1016.1
20260831093908 65 343 0.0 0.0 0.00 0.00 0.00 99 1016.3
20260831093403 65 342 0.0 0.0 0.00 0.00 0.00 99 1016.2
20260831092900 65 344 0.0 0.0 0.00 0.00 0.00 99 1016.2
20260831092355 65 344 0.0 0.0 0.00 0.00 0.00 99 1016.1
20260831091850 65 344 0.0 0.0 0.00 0.00 0.00 99 1016.1
20260831091345 65 344 0.0 0.0 0.00 0.00 0.00 99 1016.1
20260831090840 65 344 0.0 0.0 0.00 0.00 0.00 99 1015.9
20260831090336 65 344 0.0 0.0 0.00 0.00 0.00 99 1016.1
20260831085832 65 344 0.0 0.0 0.00 0.00 0.00 99 1015.9
20260831085326 65 344 0.0 0.0 0.00 0.00 0.00 99 1016.1
20260831084821 65 344 0.0 0.0 0.00 0.00 0.00 99 1015.9
20260831084317 65 344 0.0 0.0 0.00 0.00 0.00 99 1016.0
20260831083814 65 344 0.0 0.0 0.00 0.00 0.00 99 1016.1
20260831083309 65 344 0.0 0.0 0.00 0.00 0.00 99 1016.2
20260831082808 65 344 0.0 0.0 0.00 0.00 0.00 99 1015.9
20260831082306 65 344 0.0 0.0 0.00 0.00 0.00 99 1016.1
20260831081758 65 344 0.0 0.0 0.00 0.00 0.00 99 1015.9
20260831081254 65 344 0.0 0.0 0.00 0.00 0.00 99 1016.0
20260831080749 65 344 0.0 0.0 0.00 0.00 0.00 99 1016.0
20260831080244 65 344 0.0 0.0 0.00 0.00 0.00 99 1016.0
20260831075740 65 344 0.0 0.0 0.00 0.00 0.00 99 1015.9
20260831075235 65 344 0.0 0.0 0.00 0.00 0.00 99 1016.2
20260831074734 64 344 0.0 0.0 0.00 0.00 0.00 99 1016.0
20260831074233 64 344 0.0 0.0 0.00 0.00 0.00 99 1016.0
20260831073730 64 344 0.0 0.0 0.00 0.00 0.00 99 1015.8
20260831073229 64 344 0.0 0.0 0.00 0.00 0.00 99 1015.8
20260831072724 64 344 0.0 0.0 0.00 0.00 0.00 99 1015.6
20260831072221 64 344 0.0 0.0 0.00 0.00 0.00 99 1015.6
20260831071721 64 344 0.0 0.0 0.00 0.00 0.00 99 1015.6
20260831071215 64 343 0.0 0.0 0.00 0.00 0.00 99 1015.4
20260831070714 64 344 0.0 0.0 0.00 0.00 0.00 99 1015.8
20260831070208 64 344 0.0 0.0 0.00 0.00 0.00 99 1015.6
20260831065708 64 344 0.0 0.0 0.00 0.00 0.00 99 1015.5
20260831065206 64 344 0.0 0.0 0.00 0.00 0.00 99 1015.6
20260831064701 64 344 0.0 0.0 0.00 0.00 0.00 99 1015.7
20260831064156 64 344 0.0 0.0 0.00 0.00 0.00 99 1015.7
20260831063647 64 344 0.0 0.0 0.00 0.00 0.00 99 1015.7
20260831063137 64 344 0.0 0.0 0.00 0.00 0.00 99 1015.8
20260831062636 64 344 0.0 0.0 0.00 0.00 0.00 99 1016.0
20260831062130 65 344 0.0 0.0 0.00 0.00 0.00 99 1015.9
20260831061628 65 344 0.0 0.0 0.00 0.00 0.00 99 1016.0
20260831061124 65 344 0.0 0.0 0.00 0.00 0.00 99 1016.1
20260831060620 65 344 0.0 0.0 0.00 0.00 0.00 99 1016.1
20260831060115 65 344 0.0 0.0 0.00 0.00 0.00 99 1016.2
20260831055614 65 344 0.0 0.0 0.00 0.00 0.00 99 1016.1
20260831055110 65 344 0.0 0.0 0.00 0.00 0.00 99 1016.2
20260831054609 65 344 0.0 0.0 0.00 0.00 0.00 99 1016.3
20260831054108 65 344 0.0 0.0 0.00 0.00 0.00 99 1016.4
20260831053608 66 344 0.0 0.0 0.00 0.00 0.00 99 1016.4
20260831053108 66 344 0.0 0.0 0.00 0.00 0.00 99 1016.4
20260831052606 66 344 0.0 0.0 0.00 0.00 0.00 99 1016.4
20260831052101 66 344 0.0 0.0 0.00 0.00 0.00 99 1016.2
20260831051559 66 344 0.0 0.0 0.00 0.00 0.00 99 1016.3
20260831051053 66 344 0.0 0.0 0.00 0.00 0.00 99 1016.2
20260831050553 66 344 0.0 0.0 0.00 0.00 0.00 99 1016.5
20260831050051 66 344 0.0 0.0 0.00 0.00 0.00 99 1016.4
20260831045551 66 344 0.0 0.0 0.00 0.00 0.00 99 1016.4
20260831045046 66 344 0.0 0.0 0.00 0.00 0.00 99 1016.4
20260831044542 66 344 0.0 0.0 0.00 0.00 0.00 99 1016.3
20260831044037 66 344 0.0 0.0 0.00 0.00 0.00 99 1016.3
20260831043537 66 344 0.0 0.0 0.00 0.00 0.00 99 1016.5
20260831043032 66 344 0.0 0.0 0.00 0.00 0.00 99 1016.3
20260831042526 66 344 0.0 0.0 0.00 0.00 0.00 99 1016.5
20260831042020 67 344 0.0 0.0 0.00 0.00 0.00 99 1016.3
20260831041510 66 344 0.0 0.0 0.00 0.00 0.00 99 1016.2
20260831041009 66 344 0.0 0.0 0.00 0.00 0.00 99 1016.4
20260831040504 66 344 0.0 0.0 0.00 0.00 0.00 99 1016.6
20260831040001 67 344 0.0 0.0 0.00 0.00 0.00 99 1016.3
20260831035455 67 344 0.0 0.0 0.00 0.00 0.00 99 1016.2
20260831034950 67 344 0.0 0.0 0.00 0.00 0.00 99 1016.7
20260831034445 67 344 0.0 0.0 0.00 0.00 0.00 99 1016.5
20260831033941 67 344 0.0 0.0 0.00 0.00 0.00 99 1016.5
20260831033436 67 344 0.0 0.0 0.00 0.00 0.00 99 1016.5
20260831032932 68 344 0.0 0.0 0.00 0.00 0.00 99 1016.5
20260831032431 68 344 0.0 0.0 0.00 0.00 0.00 99 1016.4
20260831031926 68 344 0.0 0.0 0.00 0.00 0.00 99 1016.5
20260831031426 68 344 0.0 0.0 0.00 0.00 0.00 99 1016.6
20260831030920 69 344 0.0 0.0 0.00 0.00 0.00 99 1016.5
20260831030419 69 344 0.0 0.0 0.00 0.00 0.00 99 1016.6
20260831025918 69 344 0.0 0.0 0.00 0.00 0.00 99 1016.7
20260831025412 69 344 0.0 0.0 0.00 0.00 0.00 99 1016.7
20260831024908 69 344 0.0 0.0 0.00 0.00 0.00 99 1016.6
20260831024407 69 344 0.0 0.0 0.00 0.00 0.00 99 1016.7
20260831023907 69 344 0.0 0.0 0.00 0.00 0.00 99 1016.4
20260831023405 69 344 0.0 0.0 0.00 0.00 0.00 99 1016.4
20260831022901 69 344 0.0 0.0 0.00 0.00 0.00 99 1016.4
20260831022400 69 344 0.0 0.0 0.00 0.00 0.00 99 1016.6
20260831021855 69 345 0.0 0.0 0.00 0.00 0.00 99 1016.4
20260831021354 69 345 0.0 0.0 0.00 0.00 0.00 99 1016.5
20260831020850 69 345 0.0 0.0 0.00 0.00 0.00 99 1016.7
20260831020344 69 345 0.0 0.0 0.00 0.00 0.00 99 1016.6
20260831015840 70 345 0.0 0.0 0.00 0.00 0.00 99 1016.6
20260831015336 70 345 0.0 0.0 0.00 0.00 0.00 99 1016.7
20260831014835 70 345 0.0 0.0 0.00 0.00 0.00 99 1016.7
20260831014330 70 345 0.0 0.0 0.00 0.00 0.00 99 1016.7
20260831013827 70 345 0.0 0.0 0.00 0.00 0.00 99 1016.7
20260831013326 70 345 0.0 0.0 0.00 0.00 0.00 99 1016.6
20260831012820 70 345 0.0 0.0 0.00 0.00 0.00 99 1016.7
20260831012317 69 345 0.0 0.0 0.00 0.00 0.00 99 1016.7
20260831011815 69 345 0.0 0.0 0.00 0.00 0.00 99 1016.5
20260831011310 70 345 0.0 0.0 0.00 0.00 0.00 99 1016.6
20260831010806 70 345 0.0 0.0 0.00 0.00 0.00 99 1016.3
20260831010301 70 345 0.0 0.0 0.00 0.00 0.00 99 1016.6
20260831005757 70 345 0.0 0.0 0.00 0.00 0.00 99 1016.5
20260831005252 70 345 0.0 0.0 0.00 0.00 0.00 99 1016.4
20260831004747 70 346 0.0 0.0 0.00 0.00 0.00 99 1016.1
20260831004243 70 345 0.0 0.0 0.00 0.00 0.00 99 1016.0
20260831003738 70 345 0.0 0.0 0.00 0.00 0.00 99 1015.9
20260831003235 70 345 0.0 0.0 0.00 0.00 0.00 99 1015.9
20260831002734 71 346 0.0 0.0 0.00 0.00 0.00 99 1015.8
20260831002233 71 346 0.0 0.0 0.00 0.00 0.00 98 1015.8
20260831001729 71 346 0.0 0.0 0.00 0.00 0.00 98 1015.6
20260831001224 71 346 0.0 0.0 0.00 0.00 0.00 98 1015.7
20260831000721 72 346 0.0 0.0 0.00 0.00 0.00 98 1015.5
20260831000218 71 346 0.0 0.0 0.00 0.00 0.00 97 1015.4
20260830235715 72 344 0.0 0.0 0.00 0.00 0.00 97 1015.5
20260830235210 72 344 0.0 0.0 0.00 0.00 0.00 97 1015.3
20260830234704 72 344 0.0 0.0 0.00 0.00 0.00 97 1015.1
20260830234201 72 344 0.0 0.0 0.00 0.00 0.00 96 1015.2
20260830233656 73 344 0.0 0.0 0.00 0.00 0.00 95 1015.3
20260830233151 73 344 0.0 0.0 0.00 0.00 0.00 95 1015.5
20260830232647 73 344 0.0 0.0 0.00 0.00 0.00 95 1015.4
20260830232142 74 345 0.0 0.0 0.00 0.00 0.00 94 1015.5
20260830231638 74 345 0.0 0.0 0.00 0.00 0.00 93 1015.5